Find Starlink 11422

NORAD ID: 61944 Int'l Des: 2024-209 Owner: SPXS Country: US Constellation: starlink operational
LEOCIRCULAR

实时位置

正在加载3D地球...

关于 Starlink 11422

正在加载描述...

即将过境

Passes for default location (London). Set your location on the main map for personalized predictions.

高度历史

Loading altitude history...

两行轨道根数

1 61944U 24209F 26126.36674472 .00094940 00000-0 78117-3 0 9990
2 61944 53.1567 87.1605 0001168 91.9029 268.2123 15.69660139 85739
Epoch: May 6, 2026 • Age: 21 hours

当前状态

高度 360.1 km
速度 7.69 km/s
星下点 1.71°N, 125.88°E
发射日期 Nov 14, 2024
运行时间 1.4 years
类型 internet

技术详情

分类 Payload
质量 960.00 kg
干质量 910.00 kg
总质量 960.00 kg
长度 0.30 m
直径 4.10 m
跨度 29.00 m
形状 Box + pan
制造商 SPXS
平台类型 Starlink V2MD
阶段状态 In Orbit
所有者/国家 SPXS/US

Most Searched